Вернуться в каталог

STARLINK-6083

АктивенСвязьVLEO
NORAD 56109·PAYLOAD·🇺🇸 United States

Запущен Mar 29, 2023 с Cape Canaveral Space Force Station

Loading…

Ближайшие Пролёты (ближайшие 24 часа)

TLE

СвежийSource: CelesTrak SupGP

Эпоха: Sep 14, 2026, 21:35 UTC

1 56109C 23046S   26257.89979167 -.00027651  00000+0 -10018-2 0  2575
2 56109  43.0027 173.2661 0001315 262.3016 167.8078 15.27583905    18

Отслеживайте STARLINK-6083 в реальном времени с AllMySat

Download on the App Store